Weather History for Bryce Canyon, UT

Change the Weather History Date:

Friday, February 15, 2013

  Actual Average Record
Temperature  
Mean Temperature 24 °F -  
Max Temperature 39 °F 38 °F 53 °F (2014)
Min Temperature 10 °F 12 °F -10 °F (1964)
Degree Days  
Heating Degree Days 40    
Moisture  
Dew Point 12 °F    
Average Humidity 66    
Maximum Humidity 88    
Minimum Humidity 36    
Precipitation  
Precipitation 0.00 in - - ()
Sea Level Pressure  
Sea Level Pressure 30.42 in    
Wind  
Wind Speed 9 mph (WNW)    
Max Wind Speed 13 mph    
Max Gust Speed 21 mph    
Visibility 10 miles    
Events      
Averages and records for this station are not official NWS values.
T = Trace of Precipitation, MM = Missing Value Source: NWS Daily Summary

Daily Weather History Graph

Daily Weather History Graph

Search for Another Location

Airport:

Trip Planner

Search our weather history database for the weather conditions in past years. The results will help you decide how hot, cold, wet, or windy it might be!

Date:

Astronomy

Feb. 15, 2013 Rise Set
Actual Time 7:17 AM MST 6:08 PM MST
Civil Twilight 6:50 AM MST 6:34 PM MST
Nautical Twilight 6:20 AM MST 7:05 PM MST
Astronomical Twilight 5:49 AM MST 7:36 PM MST
Moon 10:03 AM MST (2/15) No Moon Set
Length of Visible Light 11h 44m
Length of Day
10h 50m
Waxing Crescent, 31% of the Moon is Illuminated
Feb 15
Waxing Crescent
Feb 17
First Quarter
Feb 25
Full
Mar 4
Last Quarter
Mar 11
New

Hourly Weather History & Observations

Time (MST) Temp. Windchill Dew Point Humidity Pressure Visibility Wind Dir Wind Speed Gust Speed Precip Events Conditions
12:53 AM 19.0 °F 7.5 °F 12.0 °F 74% 30.32 in 10.0 mi WNW 10.4 mph - N/A   Clear
1:53 AM 16.0 °F 3.6 °F 12.9 °F 88% 30.34 in 10.0 mi West 10.4 mph - N/A   Clear
2:53 AM 15.1 °F 2.5 °F 10.0 °F 80% 30.35 in 10.0 mi NW 10.4 mph - N/A   Clear
3:53 AM 17.1 °F 3.6 °F 9.0 °F 71% 30.34 in 10.0 mi NW 12.7 mph - N/A   Clear
4:53 AM 17.1 °F 4.3 °F 10.0 °F 74% 30.35 in 10.0 mi NW 11.5 mph - N/A   Clear
5:53 AM 17.1 °F 4.3 °F 10.0 °F 74% 30.39 in 10.0 mi NW 11.5 mph - N/A   Unknown
6:53 AM 10.0 °F -2.9 °F 7.0 °F 87% 30.47 in 10.0 mi West 9.2 mph - N/A   Clear
7:53 AM 12.0 °F 2.7 °F 8.1 °F 84% 30.49 in 10.0 mi WNW 5.8 mph - N/A   Clear
8:53 AM 17.1 °F - 10.0 °F 74% 30.51 in 10.0 mi Calm Calm - N/A   Clear
10:53 AM 28.9 °F 21.1 °F 16.0 °F 58% 30.45 in 10.0 mi West 8.1 mph - N/A   Clear
11:53 AM 32.0 °F 24.8 °F 16.0 °F 52% 30.43 in 10.0 mi NW 8.1 mph - N/A   Clear
12:53 PM 36.0 °F 28.5 °F 14.0 °F 41% 30.39 in 10.0 mi WNW 10.4 mph 20.7 mph N/A   Clear
1:53 PM 37.9 °F 32.7 °F 16.0 °F 41% 30.37 in 10.0 mi NW 6.9 mph - N/A   Clear
2:53 PM 39.9 °F 34.5 °F 16.0 °F 38% 30.36 in 10.0 mi NNW 8.1 mph - N/A   Clear
3:53 PM 39.9 °F 33.9 °F 16.0 °F 38% 30.36 in 10.0 mi WNW 9.2 mph - N/A   Clear
4:53 PM 39.9 °F 35.1 °F 15.1 °F 36% 30.35 in 10.0 mi North 6.9 mph - N/A   Clear
5:53 PM 34.0 °F 27.2 °F 15.1 °F 46% 30.40 in 10.0 mi WNW 8.1 mph - N/A   Clear
6:53 PM 25.0 °F 17.1 °F 15.1 °F 66% 30.50 in 10.0 mi West 6.9 mph - N/A   Clear
7:53 PM 19.0 °F - 12.9 °F 77% 30.54 in 10.0 mi Calm Calm - N/A   Clear
8:53 PM 19.9 °F 9.3 °F 12.9 °F 74% 30.51 in 10.0 mi West 9.2 mph - N/A   Clear
9:53 PM 18.0 °F 8.7 °F 10.9 °F 74% 30.46 in 10.0 mi West 6.9 mph - N/A   Clear
10:53 PM 16.0 °F 8.8 °F 10.9 °F 81% 30.48 in 10.0 mi WNW 4.6 mph - N/A   Clear
11:53 PM 12.0 °F - 8.1 °F 84% 30.49 in 10.0 mi Calm Calm - N/A   Clear